Terminal Aerodrome Forecast
Issued by NWS

Home | Current Version | Previous Version | Text Only | Print | Product List | Glossary On
Versions: 1 2 3 4 5 6 7 8 9 10 11 12 13 14 15 16 17 18 19 20 21 22 23 24 25 26 27 28 29 30 31 32 33 34 35 36 37 38 39 40 41 42
000
FTAK31 PAFA 251211 AAA
TAFAQT
TAF AMD
PAQT 251211Z 2512/2612 07006KT 2SM BR OVC005
      TEMPO 2512/2516 1/4SM FG OVC003
     FM252000 08012KT 6SM BR OVC005
     FM260600 07016KT 2SM BR BKN003=

USA.gov is the U.S. government's official web portal to all federal, state and local government web resources and services.